Location: Vista Encantada
(35.1109°N, 106.5681°W)
Time: 08:23:40
(UTC+00:00)

SL-19 R/B - Pass Details

Date: 29 October 2020
Orbit: 358 x 807 km, 99.4° (Epoch: 04 December)

Event Time Altitude Azimuth Distance (km) Brightness Sun altitude
Rises 11:58:54 0° 14° (NNE) 2,198 7.5 -18.2°
Reaches altitude 10° 12:00:47 10° 14° (NNE) 1,361 6.4 -17.8°
Maximum altitude 12:03:38 88° 92° (E) 385 3.5 -17.2°
Drops below altitude 10° 12:06:41 10° 194° (SSW) 1,453 6.4 -16.6°
Sets 12:08:45 0° 195° (SSW) 2,366 7.5 -16.2°
